Location: Unspecified
(0.0000°N, 0.0000°E)
Time: 19:32:37
(UTC+00:00)

deb Delta 126 - Pass Details

Date: 22 February 2026
Orbit: 1501 x 1634 km, 102.6° (Epoch: 11 March)

Event Time Altitude Azimuth Distance (km) Brightness Sun altitude
Rises 03:45:36 0° 24° (NNE) 4,781 ? -36.3°
Reaches altitude 10° 03:48:32 10° 27° (NNE) 3,782 ? -35.6°
Maximum altitude 03:57:18 65° 107° (ESE) 1,688 ? -33.4°
Drops below altitude 10° 04:05:52 10° 187° (S) 3,697 ? -31.4°
Sets 04:08:41 0° 189° (S) 4,668 ? -30.7°
